Theta_e
311 311 311 311 311 310 310 309 310 310 310 310 310 310 310 311 311 311 311 311 310 311 310 302 296 295 294 294 294 293 292 292 292 292 291 291 291 291 291 290 290 290 290 290 290 290 290 289 289 288 288 287 287 287 287 286 286 287 287 287 287 287 288 288 288 288 288 288 288 288 289 290 291 291 290 290 290 290 290 290 290 290 290 289 289 289 289
309 309 309 309 308 307 307 307 307 308 308 308 308 307 307 308 308 308 308 308 309 308 304 298 294 293 294 294 295 294 292 292 292 291 290 291 291 291 291 291 290 290 290 289 290 290 289 288 288 288 287 287 286 286 286 285 285 286 286 287 287 287 287 288 288 287 287 287 287 287 288 289 290 291 291 290 290 290 290 289 289 289 289 289 289 288 288
308 307 307 307 306 305 305 304 304 304 303 303 303 304 304 304 305 306 305 307 307 302 296 295 294 292 293 293 293 293 293 292 291 290 290 290 291 291 291 290 290 290 289 289 289 289 289 288 288 287 287 286 286 286 285 284 285 285 285 286 286 286 287 287 287 287 286 286 286 287 287 288 289 290 291 291 290 289 289 289 289 289 289 288 288 288 288
305 305 305 304 303 302 301 301 300 300 300 301 301 302 302 302 303 302 302 305 304 297 293 294 294 293 293 292 292 293 293 293 292 290 289 290 290 290 291 291 290 290 290 290 289 288 288 287 287 287 286 285 285 285 284 283 284 284 284 284 285 285 286 286 286 286 286 285 285 286 286 287 287 289 290 290 290 289 289 289 289 288 288 288 288 288 288
303 303 303 300 299 300 300 300 300 300 299 299 299 299 299 300 301 302 302 301 298 294 294 294 294 293 293 292 291 292 293 293 292 290 289 290 290 291 291 291 291 290 289 289 288 288 288 287 286 287 286 285 285 284 283 282 283 283 283 283 283 284 285 285 285 285 285 284 285 285 286 286 286 287 288 289 289 289 288 288 288 288 288 288 288 287 287
301 301 299 297 298 300 300 301 302 300 299 299 298 298 300 301 300 299 299 298 294 294 295 295 294 294 293 292 292 291 291 292 291 290 290 291 291 291 292 291 291 290 288 288 288 288 288 286 286 286 285 284 284 283 282 282 282 282 282 282 283 283 284 284 284 283 283 283 284 285 286 285 285 286 286 287 288 289 288 288 287 287 287 287 287 287 287
299 299 298 297 299 299 298 299 299 298 300 301 299 299 300 298 296 295 295 295 294 295 295 294 294 293 293 293 292 291 291 292 291 290 290 290 291 291 291 291 291 289 287 287 288 287 287 286 285 285 284 283 283 282 281 281 281 281 281 281 282 282 283 283 282 281 281 281 283 285 285 285 285 285 285 286 287 288 288 287 287 287 287 287 287 287 287
298 298 297 297 297 296 296 297 297 296 298 299 299 299 298 296 295 295 294 294 294 295 294 293 293 293 292 292 291 290 291 291 290 290 290 290 290 291 290 290 289 288 287 287 287 287 287 286 285 284 284 283 282 281 280 280 280 280 280 281 281 282 282 281 280 280 279 280 283 285 285 284 284 284 284 285 286 287 287 287 287 287 286 286 286 286 286
298 297 296 296 295 294 295 297 297 297 298 298 299 299 298 296 295 294 294 294 295 295 295 294 293 292 291 290 290 290 291 290 291 291 290 290 290 290 289 289 289 288 288 287 286 286 286 285 284 284 283 282 281 280 280 279 279 279 279 280 280 281 281 280 279 278 277 279 282 285 284 283 283 283 283 283 284 285 286 286 286 286 286 286 286 286 286
297 296 295 296 295 294 297 298 296 296 297 297 296 297 297 296 295 294 294 295 295 295 295 294 292 291 290 289 289 291 292 291 291 292 290 288 288 288 288 288 288 288 287 286 285 285 285 284 283 283 282 281 280 279 279 279 279 279 278 279 279 279 279 278 277 276 276 279 282 283 282 281 281 281 282 283 283 284 285 285 286 286 286 285 285 285 285
297 296 296 296 295 296 299 299 295 293 295 295 295 296 296 294 293 293 293 294 295 294 294 294 292 291 291 290 289 290 292 291 290 291 290 287 286 287 287 287 287 287 286 285 285 284 283 283 282 282 281 280 279 279 278 278 278 278 278 278 278 278 277 276 275 275 275 278 281 281 280 279 279 279 280 281 282 282 283 284 285 285 285 285 285 285 285
296 296 296 296 297 297 297 296 294 293 294 295 296 296 294 292 292 292 292 293 295 294 293 293 292 291 291 290 289 290 291 290 288 288 288 287 286 286 286 286 286 285 284 284 283 282 282 281 281 280 280 279 278 278 277 277 277 277 277 277 277 277 276 275 274 274 274 276 278 279 278 277 277 277 279 280 281 282 282 283 284 284 285 284 284 284 284
297 297 297 296 297 298 297 295 294 293 292 293 295 295 292 292 293 293 292 293 294 294 293 292 291 291 290 290 289 290 290 289 287 286 286 286 285 285 285 285 284 283 283 282 281 281 281 280 280 279 279 278 277 277 277 276 276 276 276 276 276 275 274 273 273 273 273 275 277 276 275 275 275 275 277 278 279 281 281 282 283 283 284 284 283 283 284
295 295 297 296 295 296 297 295 291 290 291 294 296 294 291 292 292 292 292 294 293 292 292 291 290 290 290 289 289 289 288 288 288 286 285 284 284 284 284 283 283 282 281 281 280 280 280 279 279 278 277 277 276 276 276 276 276 276 275 275 274 273 272 272 272 272 273 274 274 273 273 273 273 274 275 276 278 279 281 281 282 282 283 283 282 282 282
293 292 294 294 293 293 294 292 290 289 292 296 295 292 290 291 290 290 291 293 292 291 291 290 290 290 289 289 289 288 288 288 287 286 284 283 283 283 282 282 282 281 280 279 279 279 279 278 278 277 276 275 275 275 275 275 275 275 274 273 273 272 271 271 271 271 272 272 271 271 271 271 272 272 273 275 277 279 280 281 281 282 282 282 282 281 281
293 293 293 295 296 294 291 291 292 293 293 293 291 289 289 290 289 290 291 291 291 291 290 290 289 289 289 289 288 288 288 287 286 285 283 282 282 282 281 281 280 280 279 278 278 278 278 277 277 276 275 275 274 274 274 275 274 273 273 272 271 270 270 270 270 270 270 270 269 269 269 269 270 271 273 275 277 278 280 280 281 281 281 282 281 281 281
292 293 292 293 295 294 291 290 292 291 291 290 289 288 289 289 289 290 290 290 290 290 289 289 289 289 289 289 288 288 287 286 285 283 282 281 281 280 279 279 279 278 278 277 277 276 276 276 276 275 274 274 273 273 274 274 273 272 271 270 270 269 269 269 269 269 268 268 268 268 268 268 269 271 273 274 276 278 279 280 280 280 281 281 281 280 280
290 290 290 289 290 290 290 289 289 289 289 289 289 288 289 289 289 289 289 289 289 289 288 288 288 288 288 288 287 286 284 283 282 281 280 280 279 278 278 278 278 277 276 276 275 275 275 275 274 274 273 273 273 273 273 272 272 271 270 269 268 268 268 268 267 267 267 267 267 267 267 268 269 271 272 274 276 277 279 280 280 280 280 281 281 280 280
289 289 289 289 289 289 289 289 289 289 289 288 288 288 289 289 288 288 287 287 288 287 287 287 287 287 286 285 284 283 281 281 280 279 278 278 277 277 277 276 276 275 275 274 274 273 273 273 273 273 272 272 272 272 271 271 270 269 268 268 267 267 267 266 266 266 266 266 266 266 267 268 269 270 272 273 275 277 278 279 280 280 280 280 280 280 280
288 288 288 288 289 289 289 288 288 288 288 288 288 288 287 287 286 286 285 285 285 286 285 284 283 283 282 281 280 280 279 278 278 277 277 276 276 276 275 275 274 274 273 273 272 272 272 272 272 271 271 271 271 270 270 269 268 267 266 266 266 266 265 265 265 265 265 265 265 266 266 267 268 269 270 272 274 276 277 279 279 280 280 280 280 280 280
288 288 289 289 289 289 289 288 288 288 288 288 287 286 286 286 286 285 283 281 280 281 281 280 280 280 279 278 278 278 277 277 276 276 275 275 274 274 273 273 272 272 272 271 271 271 271 271 270 270 269 269 269 268 267 267 266 265 265 265 264 264 264 264 264 264 264 264 264 265 265 266 267 268 269 271 273 275 277 278 279 279 280 280 280 281 281
289 288 288 289 288 288 288 288 288 288 288 287 287 287 286 285 283 282 281 279 277 276 277 277 277 278 278 276 276 276 275 275 274 274 273 273 272 272 272 271 271 270 270 270 269 269 269 268 268 267 267 267 266 265 265 264 264 264 263 263 263 263 263 263 263 263 263 263 264 264 264 265 266 268 269 270 272 274 276 277 278 279 280 280 280 281 281
289 289 289 289 289 288 288 288 289 288 286 285 286 285 283 281 278 276 277 278 277 275 274 274 275 276 275 274 274 274 273 273 272 272 271 271 271 270 270 270 269 268 268 267 267 266 266 265 265 265 264 264 263 263 263 262 262 262 262 262 262 262 262 262 262 262 262 263 263 263 264 264 266 267 268 270 271 273 275 276 277 278 279 280 281 281 281
289 289 289 289 288 288 288 288 287 284 280 281 283 281 277 276 274 273 274 275 275 275 273 272 273 273 273 272 272 271 271 270 270 270 270 269 269 269 268 267 267 266 265 265 264 264 263 263 263 262 262 262 262 261 261 261 261 261 261 261 261 261 261 262 262 262 262 262 263 263 263 264 266 267 269 271 272 273 275 276 277 278 279 280 281 281 282
289 289 289 289 288 288 286 284 281 276 274 277 279 276 274 273 272 272 272 272 272 272 272 271 271 271 270 270 269 269 269 269 268 268 268 267 267 266 265 265 264 263 263 263 262 262 261 261 261 261 261 261 261 261 261 261 261 261 261 261 261 261 261 261 261 262 262 262 263 263 264 265 266 268 269 270 271 271 272 273 275 277 278 279 280 281 282
288 288 288 287 286 286 284 283 280 275 272 273 274 273 272 271 271 270 270 270 269 269 269 269 269 269 268 268 268 267 267 267 266 266 265 265 264 264 263 262 262 262 261 261 261 261 261 260 261 260 260 261 261 261 261 261 261 261 261 261 261 261 261 261 262 262 262 263 263 264 264 265 266 267 267 268 268 268 269 270 271 274 276 278 279 280 281
286 284 285 287 287 286 284 282 279 274 271 270 271 270 269 269 268 268 268 268 268 268 268 267 267 267 266 266 266 265 265 264 264 264 263 263 262 262 261 261 261 260 260 260 260 260 260 260 260 260 260 261 261 261 261 261 261 261 261 261 261 261 261 261 262 262 262 262 263 263 264 264 264 264 265 265 266 267 268 269 271 274 276 277 278 279 280
281 278 278 283 286 284 278 274 272 271 270 269 268 267 267 267 267 267 267 267 267 266 266 266 266 265 264 264 264 263 263 262 262 262 261 261 261 261 260 260 260 260 260 260 260 260 260 260 260 260 260 261 261 261 261 261 261 261 261 261 261 261 261 261 261 262 262 262 262 262 263 263 263 263 264 265 266 267 269 271 273 275 277 278 278 278 279
275 272 271 273 274 273 271 271 270 269 269 268 267 266 266 266 267 267 266 266 265 265 264 264 264 263 263 262 262 261 261 261 260 260 260 260 260 260 260 260 260 260 260 260 260 261 260 260 260 260 260 260 260 260 260 260 260 260 260 260 260 261 261 261 261 261 261 261 262 262 262 263 263 264 265 266 267 268 270 271 274 276 277 278 278 278 278
270 268 268 269 268 268 270 272 271 269 267 267 266 265 265 265 266 266 265 264 264 263 263 262 262 261 261 261 260 260 260 260 259 259 259 259 259 260 260 260 260 260 260 260 260 260 260 260 260 260 260 260 260 260 260 260 260 260 260 260 260 260 260 261 261 261 261 262 262 263 263 264 265 265 266 266 266 267 269 270 273 276 277 278 278 278 278
268 267 268 268 268 269 271 270 268 267 266 265 265 265 264 264 265 264 263 263 262 262 261 261 260 260 260 260 259 259 259 259 259 259 259 259 259 260 260 260 260 260 260 260 259 259 259 259 259 259 259 259 259 259 260 260 260 260 260 260 260 260 260 261 261 262 262 262 263 263 264 264 264 265 265 266 266 267 268 270 273 275 277 277 277 277 278
271 271 270 269 268 269 270 268 267 266 265 264 264 264 263 263 263 263 262 261 261 261 260 260 259 259 259 259 259 258 258 258 258 258 259 259 260 261 261 261 260 260 259 259 259 259 259 259 259 259 259 259 259 260 260 260 260 260 260 260 260 260 260 261 261 262 262 262 263 263 264 264 265 265 266 267 268 268 269 271 274 275 276 276 277 277 277
275 276 275 273 272 272 272 269 267 266 264 262 263 263 261 261 261 261 260 260 260 259 259 259 259 259 259 258 258 258 258 258 258 259 260 260 261 261 261 260 259 259 259 259 259 259 259 259 259 259 259 259 260 260 260 260 260 260 260 260 260 260 260 261 261 262 262 262 263 263 264 264 265 265 266 267 268 268 270 272 274 275 276 276 276 276 277
270 272 271 269 268 269 269 267 264 262 262 261 261 261 260 260 260 259 259 259 259 258 258 258 258 258 258 258 258 257 258 258 259 260 261 261 261 261 260 259 259 258 258 259 259 260 260 260 259 259 259 260 260 260 260 260 260 260 261 261 261 261 261 261 261 261 262 262 262 263 263 264 264 265 265 266 267 268 270 272 274 275 276 276 276 276 276
263 263 263 262 262 262 262 262 261 260 260 260 260 259 259 259 258 258 258 258 258 258 258 258 258 258 257 257 257 257 258 259 260 261 261 261 260 260 259 259 258 258 259 260 260 260 260 260 259 259 260 260 260 260 260 261 261 261 261 261 261 261 261 261 261 262 262 262 262 263 263 264 264 265 266 267 268 270 271 272 273 274 275 275 275 276 276
261 261 261 260 260 259 259 259 259 259 258 259 258 258 258 258 258 257 257 258 258 258 258 257 257 257 257 257 257 258 259 260 260 261 261 260 260 259 259 258 258 259 259 260 260 260 260 259 259 259 260 260 260 260 260 261 261 261 262 262 262 262 262 262 262 262 262 263 263 263 264 264 265 266 267 268 269 270 272 273 274 274 274 275 275 275 276
260 260 259 259 259 259 258 258 258 258 257 257 257 257 257 257 257 257 257 257 257 257 257 257 257 256 257 257 258 259 260 260 261 260 260 260 259 259 258 258 259 259 260 260 260 260 259 259 259 259 259 259 260 260 260 261 261 262 262 262 263 263 263 263 263 264 264 264 264 264 265 265 266 267 268 269 269 270 272 273 274 274 274 274 275 275 276
259 259 259 259 258 258 257 257 258 257 257 256 256 256 256 256 256 257 257 256 257 257 257 256 256 257 257 258 259 260 260 260 260 260 260 259 259 258 258 258 259 260 260 260 259 259 259 259 259 259 259 259 259 260 260 261 261 262 262 262 262 263 263 264 264 265 265 265 266 266 266 267 267 268 269 270 271 272 272 273 274 274 274 274 274 274 274
258 258 258 258 257 257 257 257 257 257 257 256 256 256 256 256 256 256 256 256 256 257 256 256 257 257 258 258 259 260 260 260 260 260 259 259 258 258 258 259 260 260 259 259 259 259 259 259 259 258 259 259 259 259 260 261 261 262 262 262 262 263 263 264 264 265 266 266 267 267 268 268 269 270 271 271 272 272 273 273 273 272 272 272 271 271 271
257 257 257 257 257 256 256 256 257 257 257 257 256 255 256 256 256 256 256 256 256 256 256 256 257 257 258 259 260 260 260 260 260 259 259 258 258 258 259 260 261 260 259 259 259 259 259 258 258 258 258 259 259 259 260 261 261 261 261 262 262 262 263 263 264 264 265 265 266 267 267 268 268 269 269 270 270 270 270 270 270 269 269 269 268 268 268
257 257 256 256 256 256 256 256 256 256 256 256 256 256 256 256 255 255 255 256 256 256 256 256 257 257 258 260 260 260 260 260 259 259 259 258 258 258 259 260 261 260 259 259 259 259 258 258 258 258 258 258 259 259 260 260 260 261 261 261 262 262 262 263 263 264 264 265 265 265 266 266 267 267 267 267 267 267 267 267 267 266 266 266 266 266 266
256 256 256 256 256 255 255 255 255 255 255 256 256 256 256 256 255 255 255 255 256 256 256 257 257 258 259 260 260 260 259 259 259 259 258 258 258 258 259 260 260 260 259 259 258 258 258 257 257 258 258 258 258 259 259 259 260 260 260 261 261 261 262 262 262 263 263 264 264 264 265 265 265 265 265 265 265 265 265 265 265 264 264 264 264 264 264
255 255 255 255 254 255 255 255 255 255 255 255 255 255 256 255 255 255 255 255 256 256 256 257 258 259 260 260 260 259 259 259 259 258 258 258 259 259 259 259 259 259 259 258 258 258 258 257 257 257 258 258 258 258 258 258 259 259 260 260 260 261 261 261 261 262 262 262 263 263 263 264 264 264 264 264 264 264 263 263 263 263 263 263 263 263 263
254 254 254 254 254 255 255 255 254 254 254 254 255 255 255 255 255 255 255 255 256 256 257 258 259 260 260 260 259 259 259 258 258 258 258 258 260 260 260 259 259 259 259 258 258 258 257 257 257 257 257 257 257 257 257 258 258 258 259 259 259 260 260 260 261 261 261 261 261 261 262 262 262 262 262 262 263 263 263 263 262 262 262 262 262 262 262
254 254 254 254 254 254 254 254 254 254 254 254 254 254 255 255 256 257 257 257 257 258 259 259 260 260 260 260 259 259 259 258 258 258 258 258 259 260 260 259 259 258 258 258 258 258 257 257 257 257 257 257 257 257 257 257 257 257 258 258 258 259 259 259 260 260 260 260 260 260 261 261 261 261 261 261 262 262 262 262 262 262 261 261 261 261 261
254 254 254 253 253 253 254 254 254 253 253 253 252 254 256 257 258 258 258 259 258 259 259 260 260 260 260 259 259 259 258 258 258 259 258 258 258 258 259 259 259 259 259 259 258 258 258 258 258 258 258 258 258 257 257 257 257 257 257 257 257 258 258 258 258 259 259 259 259 260 260 260 260 260 260 261 261 261 261 261 261 261 260 260 260 260 260
253 253 253 253 253 253 254 254 253 252 252 253 253 254 257 258 258 258 259 259 259 259 260 259 259 260 259 259 259 258 258 257 258 259 259 258 258 259 260 260 260 260 259 259 259 258 258 259 259 259 259 259 259 258 257 257 257 256 256 256 256 257 257 257 257 258 258 258 258 259 259 259 259 259 259 259 259 260 260 260 260 260 260 260 260 259 259
252 252 253 253 254 254 254 254 253 252 253 254 255 256 257 258 259 259 259 259 259 259 259 259 259 259 259 258 258 258 257 257 258 259 259 260 260 261 261 260 260 260 260 260 260 260 260 260 260 260 260 260 259 258 258 257 257 257 256 256 256 256 256 256 257 257 257 257 257 258 258 258 258 258 258 259 259 259 259 259 259 259 259 260 260 260 260
253 253 253 254 254 254 254 254 254 254 255 256 257 257 258 259 259 259 259 259 259 259 259 259 259 259 259 258 258 258 257 257 258 259 259 260 260 260 260 260 260 260 260 260 260 260 260 260 260 260 260 260 259 259 258 258 258 257 257 257 256 256 256 256 256 257 257 257 257 257 257 257 257 258 258 258 259 259 259 259 260 260 260 260 261 261 262
254 254 253 253 254 255 255 255 255 255 257 257 258 258 259 259 259 259 259 259 259 259 259 259 259 259 258 258 258 257 258 258 258 259 260 260 260 260 260 260 260 260 260 260 260 260 260 260 260 260 260 259 259 259 259 259 258 258 258 258 258 258 258 258 258 258 258 258 258 258 258 258 258 259 259 259 259 259 260 260 260 261 261 262 262 263 263
254 253 254 254 255 256 257 257 257 257 258 258 259 259 259 259 259 259 259 259 259 259 259 259 259 258 258 257 257 257 258 259 260 260 261 261 261 261 261 260 260 260 260 260 260 260 260 260 260 260 260 260 259 259 259 259 259 259 259 259 259 259 259 259 259 259 259 259 259 259 259 260 260 261 261 261 261 261 261 261 262 262 262 262 263 263 263
254 255 256 256 256 257 257 258 258 258 258 258 258 259 259 259 259 259 259 259 259 259 258 258 258 258 257 257 257 258 259 260 260 261 261 261 261 260 260 260 260 260 260 260 260 260 259 259 260 260 260 260 260 259 259 259 259 259 259 259 259 259 259 259 259 259 259 260 260 260 260 260 261 261 261 261 261 262 262 262 262 262 262 263 263 263 263
Wind_Speed
13 13 14 12 11 10 10 10 11 11 11 12 14 16 13 10 9 10 10 13 15 13 6 2 2 1 1 0 1 1 1 1 3 3 4 5 5 5 5 6 6 6 6 6 8 12 16 19 22 23 23 24 24 23 24 26 27 27 28 28 28 28 28 28 29 33 35 36 37 38 38 37 37 35 33 30 29 28 29 31 33 35 36 37 39 40 40
11 11 12 10 8 8 8 9 9 9 12 14 15 14 14 14 14 14 15 18 19 11 4 6 4 2 2 2 2 2 2 2 3 4 4 5 5 5 5 5 5 5 5 6 8 10 13 16 19 20 22 25 26 26 27 28 28 28 28 27 27 27 27 27 28 30 31 33 36 38 39 38 38 37 36 33 30 29 28 30 32 34 35 36 38 39 38
8 8 9 8 6 6 9 9 9 11 14 15 15 15 15 15 16 16 17 19 16 4 5 5 4 3 1 2 3 4 4 3 3 4 4 5 5 5 5 5 5 4 5 6 7 9 11 14 17 17 19 22 24 26 28 30 30 30 28 27 26 26 26 26 28 29 29 30 32 34 35 36 37 37 37 35 32 30 29 29 30 32 34 35 36 37 38
7 7 9 8 5 6 10 11 14 18 18 15 15 14 13 14 16 17 16 14 8 2 4 1 2 3 2 3 4 4 3 4 4 4 4 4 5 5 5 5 5 5 5 5 6 8 11 14 15 16 18 20 20 22 27 30 31 31 30 28 27 27 26 26 27 29 30 30 31 31 31 32 33 34 35 35 33 31 29 29 29 30 32 34 35 36 36
5 5 5 3 3 6 10 10 14 17 17 16 16 15 15 15 13 12 11 7 2 3 3 1 2 3 4 4 4 4 3 4 4 4 4 5 5 6 6 6 6 5 6 6 8 10 12 14 15 16 17 18 17 20 24 28 29 30 30 30 30 29 28 27 28 30 31 32 32 32 32 32 33 33 33 33 32 31 30 29 28 28 30 32 33 34 35
5 5 2 3 4 9 8 4 6 9 12 15 16 13 10 7 3 2 2 2 3 3 3 3 3 4 4 4 4 4 4 4 4 4 5 5 6 6 6 7 6 6 7 9 11 12 14 16 17 18 17 17 17 19 23 25 26 27 28 28 29 29 29 30 30 31 32 33 33 33 33 33 33 33 32 32 32 31 30 28 27 28 29 30 32 33 34
4 3 3 7 11 8 3 1 1 3 4 5 6 5 3 2 4 5 5 5 5 5 4 5 5 5 4 4 5 6 5 6 6 5 5 6 6 6 6 7 7 7 9 11 13 14 15 17 18 19 19 18 19 21 23 24 24 24 25 26 26 26 27 30 32 33 34 34 33 32 33 33 33 33 33 33 33 32 30 28 27 28 28 29 30 31 33
2 2 4 10 9 4 4 5 2 1 0 2 1 3 3 5 6 6 5 4 4 5 5 5 5 5 4 4 6 8 8 8 8 6 5 6 6 6 7 7 8 10 12 13 15 17 18 19 20 20 20 19 20 23 25 25 25 25 25 25 25 24 25 28 31 34 36 36 34 32 32 33 33 32 32 33 34 33 31 30 29 28 28 29 30 31 32
3 3 6 7 7 7 9 8 3 2 3 4 3 2 3 5 5 4 3 3 4 4 5 6 4 2 1 3 6 8 8 9 9 7 6 7 7 8 10 12 14 15 15 15 17 18 19 20 21 21 20 20 21 24 26 25 25 26 25 25 24 24 24 26 28 32 34 35 33 32 32 32 32 32 32 32 33 33 31 31 30 28 29 29 30 31 32
3 3 5 5 6 7 6 5 4 3 3 3 2 0 1 5 5 3 2 3 6 5 6 6 2 2 2 4 6 5 6 8 8 7 7 9 11 12 14 16 17 17 16 17 18 19 19 21 22 20 19 20 21 24 26 25 25 25 25 25 25 24 25 26 28 31 32 31 30 31 32 32 32 33 33 32 32 31 31 30 30 29 29 29 30 30 31
4 4 4 5 7 5 2 4 4 2 2 3 2 1 1 2 4 4 5 6 7 6 6 6 2 2 3 6 6 5 7 8 8 7 7 9 12 15 16 16 17 18 18 18 19 20 20 22 23 20 19 20 20 22 25 25 25 25 25 24 24 25 27 29 31 32 31 28 28 30 32 33 34 35 35 34 33 32 31 30 30 30 28 28 29 30 30
7 7 6 5 5 3 3 6 4 2 2 5 3 4 3 3 6 6 7 8 9 6 6 5 4 4 6 6 7 7 7 8 8 8 8 9 12 15 17 17 17 17 17 18 19 20 22 23 24 22 21 21 21 22 24 24 24 26 26 26 25 26 29 31 33 34 32 29 28 29 31 34 36 36 35 35 35 34 32 31 31 29 28 27 29 30 30
9 9 7 4 4 3 4 6 5 4 3 5 0 6 3 6 9 7 6 9 9 7 6 5 5 7 9 9 9 7 5 6 8 10 12 14 15 17 18 18 17 16 17 19 20 22 26 26 26 25 23 22 24 24 24 24 26 27 27 27 27 28 30 32 34 35 33 30 29 31 33 34 35 36 36 36 36 35 33 32 31 29 28 27 28 29 30
4 5 4 4 4 2 4 4 2 2 2 1 5 5 3 6 8 7 6 9 8 7 7 7 7 9 10 10 10 9 8 9 8 9 11 12 14 17 18 19 18 16 17 20 22 26 30 29 27 26 23 23 26 26 24 27 29 27 25 26 28 30 33 34 35 34 32 31 32 35 36 35 34 37 39 38 36 35 33 32 31 30 29 26 25 27 28
1 2 4 5 4 2 5 5 1 1 3 5 4 2 2 5 7 5 6 8 7 7 7 8 8 10 10 10 10 10 10 11 9 9 9 8 11 15 17 20 20 16 17 21 25 29 32 31 30 27 23 24 27 27 28 32 30 26 25 27 28 31 34 36 36 34 32 33 35 36 37 36 34 37 40 38 35 34 32 31 30 29 29 26 24 25 25
2 3 4 4 4 3 3 4 2 3 5 5 3 4 5 5 4 4 5 6 7 7 7 8 9 9 9 10 10 10 11 10 9 8 8 8 10 12 15 21 23 20 18 22 26 30 33 34 33 29 25 24 26 29 33 35 31 27 28 29 29 32 34 35 36 36 35 36 38 37 38 38 36 36 37 35 34 32 30 28 26 26 26 24 22 21 22
3 5 6 5 3 3 3 4 5 8 9 8 5 5 5 5 4 4 4 5 7 7 7 8 8 8 9 10 10 9 9 8 7 7 9 11 12 14 17 23 25 23 21 23 26 29 33 36 35 32 27 24 26 31 34 33 30 29 31 31 32 35 36 36 36 37 38 39 39 38 38 37 34 34 34 33 31 30 28 26 25 24 24 22 21 21 21
4 6 11 9 5 6 7 6 7 8 9 7 5 5 5 6 6 5 4 6 7 6 6 6 6 8 10 10 9 7 5 6 8 8 10 13 16 18 21 23 24 23 23 24 26 28 33 37 35 32 29 25 27 32 33 31 30 30 31 33 35 37 39 39 38 37 38 40 40 39 38 35 32 32 32 31 30 29 27 26 25 24 23 22 21 21 21
7 8 11 9 7 9 9 8 9 9 8 7 4 5 6 6 6 6 5 6 6 6 6 6 7 9 8 6 6 6 5 7 9 8 9 14 18 20 22 23 24 23 22 24 25 27 32 37 35 32 31 29 29 31 32 30 30 31 32 33 36 39 41 42 41 39 38 38 38 38 37 34 32 31 31 30 29 29 27 25 24 23 22 22 20 20 20
8 11 15 11 8 9 8 8 9 9 9 9 7 6 6 5 5 4 3 3 4 4 3 3 4 6 5 4 4 6 7 8 9 9 10 14 18 22 24 24 23 23 22 24 25 27 31 36 37 35 34 34 32 31 31 30 30 33 35 35 35 39 42 43 42 41 39 37 37 37 37 36 35 35 35 33 30 29 29 27 25 23 22 22 22 23 22
9 12 14 10 7 9 10 10 10 9 8 10 9 6 2 1 2 3 3 2 1 1 1 2 2 5 6 3 3 7 8 8 9 10 13 17 20 23 25 25 25 25 25 26 27 29 32 36 38 39 39 39 36 32 32 32 32 34 38 39 39 40 42 41 41 40 38 37 36 35 35 36 36 37 38 35 33 33 33 32 30 28 27 27 27 27 26
10 11 10 8 7 8 10 11 10 7 5 6 7 4 2 3 2 3 3 3 2 3 2 2 2 5 7 5 5 7 8 9 11 13 16 20 22 25 26 27 28 28 28 28 29 31 34 37 39 41 42 43 40 36 35 35 35 36 39 40 40 40 38 36 35 35 35 35 34 33 33 33 34 36 38 37 35 35 36 35 33 32 32 34 34 32 29
12 13 12 8 5 7 10 11 7 2 0 1 2 1 2 3 2 2 2 3 3 1 1 2 3 6 7 6 6 7 8 12 15 16 18 19 21 25 27 26 27 30 32 33 32 33 36 39 40 41 44 45 44 41 38 37 36 37 38 37 36 36 34 33 33 33 33 33 33 32 32 31 31 32 34 35 35 35 37 37 36 35 36 38 38 36 33
13 15 14 9 6 9 12 9 2 2 2 2 3 2 2 3 2 1 1 1 4 4 4 4 5 6 7 7 7 8 11 15 17 18 21 22 21 23 26 26 27 30 33 34 33 34 38 41 43 44 45 45 44 43 41 38 37 37 37 34 33 34 34 34 34 32 31 32 31 29 29 29 29 27 27 27 26 27 29 30 31 32 34 36 37 37 36
13 15 14 10 9 9 5 1 3 3 2 2 3 3 2 2 1 1 1 2 4 5 5 4 4 6 8 9 9 9 12 17 18 19 21 24 23 22 24 26 27 29 31 34 37 39 41 43 45 44 44 44 43 43 42 40 38 38 38 36 35 36 36 34 33 30 29 29 29 27 27 27 25 22 20 18 17 19 23 26 28 29 31 33 34 34 34
13 13 10 8 7 4 1 2 1 2 2 2 3 2 1 1 2 3 4 4 6 6 6 6 6 7 9 10 12 12 13 19 22 21 19 21 23 22 23 26 29 31 34 36 38 39 41 42 43 42 42 43 43 43 42 41 39 38 38 37 37 37 36 34 32 30 29 28 28 27 27 25 23 22 22 22 21 22 24 24 24 26 28 30 32 32 32
6 4 3 7 10 6 2 2 2 2 3 2 2 1 2 3 3 4 5 6 6 6 7 8 10 11 10 10 13 15 15 18 22 21 19 19 22 24 27 30 33 35 36 36 36 38 40 41 40 40 41 42 44 43 42 41 40 39 38 38 38 37 35 34 33 32 30 30 30 29 29 29 28 28 28 28 28 27 25 21 19 20 21 23 25 28 30
1 2 0 5 9 5 1 2 1 2 2 2 2 1 4 4 3 4 4 4 4 4 5 7 10 11 10 11 13 15 15 15 17 18 19 22 25 29 32 33 34 34 35 35 36 37 37 37 37 38 40 43 44 42 41 40 39 38 36 35 35 35 34 34 34 33 32 32 32 31 31 32 32 31 30 29 28 27 27 26 24 21 20 19 21 23 27
2 2 1 0 1 1 2 2 1 1 1 2 2 3 5 5 4 3 3 4 4 4 5 7 9 11 12 13 14 14 13 14 15 18 22 26 29 32 34 34 34 34 32 32 32 33 34 35 37 38 40 42 41 40 39 38 36 35 34 34 34 33 33 34 35 35 34 33 33 32 32 32 31 29 27 25 24 24 24 23 23 21 19 19 18 18 20
1 2 1 1 2 2 2 2 1 0 1 2 3 4 4 5 5 5 4 4 5 5 6 9 10 12 13 14 14 15 15 17 20 23 25 28 31 33 33 33 29 25 23 25 29 32 33 34 35 36 39 40 40 39 38 37 36 35 35 35 34 33 32 33 32 31 30 29 28 28 28 27 26 25 25 24 25 25 25 24 23 20 17 16 16 14 15
1 1 1 1 2 2 1 2 1 0 1 2 3 5 5 5 6 7 6 5 5 6 8 10 10 11 13 15 17 19 20 22 24 25 27 29 30 30 29 28 23 19 21 27 32 33 33 33 33 35 38 40 40 40 39 37 36 35 34 33 31 31 31 31 30 28 26 26 25 24 24 24 24 25 25 25 24 24 23 22 21 19 15 14 14 15 16
2 2 0 1 0 1 0 1 1 0 2 2 3 4 4 4 6 7 7 6 6 8 9 9 10 12 16 18 19 20 22 23 25 26 26 26 25 25 26 26 26 25 28 32 34 34 33 33 33 36 39 40 40 40 39 37 35 33 32 31 30 29 29 29 27 26 25 24 23 22 22 23 23 23 23 22 21 21 21 20 18 17 17 16 16 16 17
4 2 3 3 1 1 2 1 0 2 3 3 3 3 3 4 4 5 7 8 8 8 9 10 13 17 19 20 20 21 22 23 21 21 21 22 23 25 27 28 28 29 31 33 34 33 32 32 34 36 39 39 40 40 39 36 34 32 32 31 30 28 27 27 26 25 24 23 23 22 22 22 22 22 22 22 22 22 21 19 17 16 16 17 16 17 17
3 2 2 2 1 1 2 2 2 3 4 4 4 3 4 5 6 7 8 9 9 9 10 14 17 20 20 20 20 21 20 16 12 13 18 22 25 27 29 30 31 30 30 31 31 30 30 32 35 37 38 39 39 39 37 35 33 32 31 30 29 28 27 26 25 23 22 22 22 22 22 22 22 22 23 23 23 23 21 19 17 15 14 14 15 16 17
2 1 1 1 1 1 2 2 4 4 4 5 6 5 5 8 9 9 10 10 10 12 15 18 19 20 20 19 18 17 16 14 13 15 21 24 26 29 30 31 31 29 28 27 27 28 31 35 36 36 37 38 37 36 35 33 32 32 30 29 28 28 29 29 26 23 21 21 21 20 20 20 21 22 23 22 22 22 20 18 18 16 14 13 13 14 15
2 1 1 1 2 3 3 4 5 5 4 5 6 6 7 10 11 11 12 13 14 16 18 19 19 18 17 16 16 16 17 17 18 20 23 25 28 30 30 28 28 27 24 23 27 32 35 37 38 37 37 35 33 33 33 33 32 31 30 28 27 26 27 27 26 23 21 21 20 20 21 21 22 22 22 21 20 18 17 17 16 15 13 12 11 12 13
2 1 2 3 4 5 6 7 7 8 8 8 8 8 10 12 13 14 15 15 16 17 18 19 18 17 16 18 19 19 19 19 19 21 24 26 29 29 27 24 23 21 16 18 29 38 38 36 38 38 35 32 31 33 34 33 32 30 29 27 25 24 24 24 24 24 23 22 20 19 20 20 19 19 20 20 19 18 17 16 14 13 11 11 11 11 11
3 3 4 6 6 7 8 9 11 11 11 10 11 13 14 15 16 16 16 16 17 19 19 19 18 18 19 19 19 18 18 20 21 22 25 27 27 26 23 20 19 17 15 21 33 39 37 35 37 37 33 31 32 33 34 33 31 29 26 24 23 23 22 21 21 22 22 21 20 19 19 18 18 18 18 18 17 16 15 12 10 8 7 7 7 7 7
3 3 5 7 8 9 10 11 12 12 12 12 12 14 16 17 17 16 16 17 19 19 19 19 19 18 17 16 15 15 18 21 21 22 25 27 25 24 22 19 17 17 21 27 34 35 34 35 36 34 31 32 33 33 32 31 29 26 24 23 23 22 20 19 19 19 19 18 16 15 14 13 13 12 11 10 8 6 4 4 4 5 6 7 8 9 10
2 3 5 7 7 8 9 9 10 12 13 14 14 15 17 17 16 15 15 17 19 20 19 19 17 15 14 14 14 15 19 22 22 23 24 25 23 20 17 15 19 23 28 32 34 33 34 34 33 31 32 33 32 31 31 29 27 25 24 23 23 22 21 20 19 19 18 18 17 15 13 11 9 8 7 7 7 8 8 9 10 10 11 12 12 13 15
4 5 6 7 7 8 9 10 11 12 14 14 15 17 18 18 16 15 16 18 21 21 20 19 17 16 15 15 16 18 21 23 23 21 20 19 17 13 8 12 24 33 34 34 33 32 33 33 31 31 33 33 31 30 30 27 25 24 23 23 23 23 21 20 20 20 19 19 19 19 18 16 15 15 15 15 15 15 14 15 15 15 15 16 16 17 17
5 6 6 7 8 9 11 11 11 12 13 14 16 18 19 19 18 18 19 21 21 21 20 20 19 18 17 17 17 19 21 22 21 19 16 15 13 9 6 15 29 35 34 33 33 32 32 32 31 31 33 33 31 30 28 25 23 23 23 22 23 23 22 21 21 21 21 20 20 20 20 18 17 16 17 17 17 17 17 18 17 17 17 17 18 18 18
6 7 6 6 8 10 11 12 12 11 12 15 17 18 19 19 19 20 20 21 20 19 19 19 18 16 16 16 15 15 17 18 18 18 17 16 12 7 9 20 30 33 32 33 33 32 31 32 31 31 32 32 30 28 26 24 23 23 23 22 22 23 24 23 22 23 24 24 22 21 21 20 19 18 18 18 18 18 18 18 18 17 17 17 18 18 19
8 9 8 8 10 11 11 11 11 10 11 14 17 19 19 20 20 20 19 19 18 18 18 17 15 14 13 12 11 11 13 16 16 16 16 14 11 11 17 25 29 30 30 31 31 30 31 32 31 32 32 30 28 27 26 25 24 23 23 23 22 22 23 24 24 25 26 25 23 23 23 23 22 21 21 20 19 19 19 19 18 17 18 19 19 19 20
10 10 9 10 11 11 11 11 11 12 13 16 19 20 21 20 19 18 17 17 18 17 16 13 12 11 10 10 11 12 14 16 16 14 10 6 6 13 23 29 28 27 29 29 28 29 31 31 31 32 32 30 29 28 27 26 25 25 24 24 23 22 23 23 23 23 24 24 23 24 24 23 23 23 23 22 21 20 19 19 18 18 19 20 20 20 21
10 10 11 11 12 14 15 15 15 16 17 15 15 16 18 17 15 15 16 16 16 16 14 11 10 9 9 9 12 14 15 15 13 9 6 5 8 15 22 25 24 25 27 27 26 27 29 30 31 32 32 31 31 31 29 28 27 26 25 25 25 24 23 23 22 22 22 22 22 23 22 22 22 23 23 23 22 21 20 20 20 20 19 19 20 22 23
10 12 13 14 15 17 18 17 15 14 12 9 8 11 15 16 15 15 15 14 13 13 12 11 10 9 8 9 10 11 13 13 10 5 4 9 14 16 18 21 22 23 24 24 24 25 27 28 30 31 31 31 32 32 31 30 29 28 27 27 26 25 24 24 23 23 22 22 22 22 22 22 22 22 22 22 22 22 21 21 21 21 20 21 21 21 22
12 13 15 16 17 17 17 15 11 9 8 8 9 12 15 16 16 14 13 11 10 9 10 9 8 7 7 8 8 8 8 8 6 5 8 14 16 16 17 19 20 21 22 23 24 25 26 27 28 29 30 31 32 32 31 31 31 30 29 28 27 26 25 24 23 23 23 22 22 22 22 22 22 22 22 22 22 21 21 22 21 20 21 21 21 20 21
13 14 15 16 15 13 13 10 7 6 9 12 13 14 15 15 13 11 9 8 7 8 8 6 5 5 6 7 6 6 6 5 5 6 10 14 14 15 16 18 18 19 21 22 23 24 25 26 26 27 28 30 30 31 31 32 31 31 30 29 28 27 27 26 24 24 24 24 23 23 23 22 22 22 22 22 22 22 22 22 21 21 21 22 22 23 24
12 12 12 12 12 11 10 9 7 9 12 13 13 13 13 11 8 7 6 6 6 6 6 5 4 5 6 6 5 5 5 4 4 6 9 11 13 14 15 16 17 18 19 20 22 23 24 25 26 27 27 28 28 29 29 30 31 31 31 31 30 30 29 28 28 27 27 26 26 25 24 24 23 23 23 23 22 22 22 22 21 21 22 23 23 24 25
10 11 11 11 10 11 11 10 9 11 12 12 11 11 10 8 6 5 6 7 5 5 5 6 5 5 6 6 5 5 6 7 7 8 10 11 12 13 14 15 16 18 19 20 21 22 23 24 25 26 26 26 27 27 27 28 28 29 29 30 30 30 30 30 30 29 28 27 27 27 26 25 25 25 25 24 24 23 23 22 22 22 22 23 23 24 24
9 10 9 9 10 10 10 10 10 11 11 11 11 10 8 7 6 6 5 5 5 6 7 6 6 5 5 6 6 7 8 9 9 10 11 12 12 13 14 15 16 17 18 19 20 21 22 23 23 24 24 25 25 25 26 26 26 27 27 27 28 28 29 29 29 29 29 28 28 28 27 26 26 25 25 25 24 24 24 23 23 23 22 22 22 21 21
Wind_Direction
261 262 268 268 270 272 272 274 275 276 278 269 261 263 268 271 265 268 280 281 278 278 267 180 139 210 261 24 172 202 208 307 318 331 349 355 353 350 351 350 351 351 346 345 344 344 347 349 350 352 353 353 354 353 351 351 351 350 350 348 347 346 346 345 343 344 344 345 345 346 348 350 349 347 342 333 322 307 292 277 267 259 252 247 242 239 236
263 259 266 268 270 277 274 266 265 266 263 260 262 267 270 265 261 269 276 272 271 271 202 162 154 166 220 240 233 227 229 271 310 336 348 346 339 333 329 328 331 332 335 336 334 338 345 346 347 349 348 348 348 347 347 347 347 348 347 345 343 343 342 341 340 340 341 342 343 344 345 346 347 346 344 340 332 319 304 289 276 266 257 250 245 241 238
258 249 254 256 254 267 275 276 272 267 264 265 268 270 270 269 268 267 265 264 268 257 138 155 156 148 215 251 243 238 224 236 289 318 330 327 321 316 311 312 316 317 320 323 325 333 338 340 341 343 343 343 342 342 343 343 343 344 343 341 340 338 337 336 336 337 338 338 339 339 340 341 343 343 343 341 336 327 315 301 286 273 262 254 248 243 240
258 251 259 270 284 284 278 274 268 264 263 263 261 259 257 259 264 267 266 266 266 164 127 157 163 159 205 238 244 246 219 222 256 286 308 313 309 304 303 304 303 303 307 310 312 317 325 331 332 333 335 336 337 338 338 338 339 339 339 339 336 334 334 334 334 336 336 335 334 334 335 336 337 339 340 339 336 331 321 309 296 281 267 258 252 247 243
270 265 273 318 348 290 270 259 254 255 257 259 258 256 255 255 258 266 267 266 245 141 139 166 194 197 214 227 240 245 225 225 238 259 285 297 291 285 285 286 285 284 288 295 300 308 317 321 321 323 327 329 329 331 332 333 335 336 336 335 334 333 333 333 334 335 334 333 331 331 332 332 333 334 335 336 335 330 323 314 302 286 273 263 257 251 246
271 274 319 11 279 262 264 250 233 244 252 256 258 260 261 257 244 240 221 153 139 149 164 196 221 219 216 226 245 249 231 223 235 248 258 265 268 269 272 276 277 276 282 290 297 301 307 312 315 317 320 322 321 323 327 329 329 330 330 330 330 331 331 332 333 333 333 331 329 328 329 330 330 331 331 331 331 329 324 317 304 290 279 269 261 254 249
271 293 328 287 266 259 279 317 247 256 254 245 254 262 248 181 127 117 120 138 163 179 190 209 226 236 240 244 256 257 233 212 225 244 250 254 259 263 267 269 268 272 281 289 295 296 299 306 309 310 314 318 318 319 323 324 322 322 323 323 325 326 327 328 330 331 332 330 326 325 326 327 327 327 327 328 328 327 322 315 307 296 285 275 266 259 253
276 295 238 255 274 304 296 282 276 300 92 127 172 263 222 178 153 141 149 172 190 196 207 217 221 232 250 259 259 257 238 218 221 236 246 252 254 254 260 261 259 265 274 283 289 291 295 301 303 304 308 313 314 316 319 319 317 318 319 318 320 322 323 325 326 328 329 327 323 322 323 324 323 323 323 323 324 324 320 315 309 300 289 280 272 265 259
239 252 241 261 314 313 276 265 244 189 166 158 176 258 225 186 167 146 152 189 218 222 232 240 230 218 322 297 270 256 235 218 218 226 236 245 250 256 265 269 268 269 274 282 287 289 291 295 296 298 301 306 310 312 314 314 314 315 314 313 315 317 318 320 321 323 325 322 318 318 320 321 320 319 318 318 318 318 316 311 307 300 292 284 276 269 262
216 235 261 276 291 281 260 249 249 220 168 161 161 40 218 187 181 160 151 214 239 239 245 252 238 71 352 286 275 260 226 216 220 229 241 248 253 261 271 275 276 277 281 288 290 289 289 290 291 293 295 299 304 306 307 309 309 308 307 308 311 313 313 315 317 319 320 317 312 312 315 316 315 315 315 312 312 312 309 304 300 297 293 286 279 272 264
235 232 250 250 259 271 208 196 235 244 172 148 117 355 315 171 195 207 195 224 242 232 237 239 169 123 250 263 273 258 220 219 228 234 247 257 261 268 273 274 275 279 286 292 292 290 289 288 291 294 295 296 299 297 298 301 301 299 299 301 306 308 309 311 314 315 315 311 306 307 310 312 312 313 311 309 308 307 305 300 296 293 290 284 278 273 267
236 239 249 247 257 272 179 181 201 218 155 104 70 306 283 172 213 220 193 216 237 225 228 225 169 186 227 246 263 249 212 218 237 241 249 258 264 271 277 278 278 283 289 291 290 289 288 289 294 297 296 296 294 291 292 294 291 291 295 299 302 303 305 309 311 312 312 307 303 304 306 308 310 309 308 307 306 305 303 300 295 291 286 281 276 273 268
234 237 246 251 254 245 200 190 185 171 118 79 334 262 219 176 220 230 194 214 232 218 213 210 192 216 228 235 256 259 229 233 247 248 252 260 267 273 279 285 288 291 292 290 289 289 289 291 295 296 296 295 291 291 293 289 285 289 296 299 300 302 304 307 308 309 309 304 301 303 305 306 307 306 304 304 303 302 301 298 294 288 283 278 273 271 268
241 242 250 271 279 237 178 181 183 134 111 167 223 222 173 180 217 225 206 219 228 216 215 217 218 234 241 244 257 265 258 255 257 256 258 266 277 282 287 293 296 297 296 294 292 291 292 294 294 296 296 293 291 293 291 286 287 295 298 297 299 302 304 305 305 305 304 301 300 303 304 305 305 303 303 303 301 299 297 295 291 286 282 276 270 268 266
239 251 241 255 272 225 153 149 120 107 170 204 229 256 243 218 218 217 215 222 224 219 225 233 235 243 252 255 258 261 260 261 264 268 269 270 278 288 295 298 299 299 295 292 291 291 294 294 294 295 295 291 292 292 288 287 294 300 298 297 300 301 301 302 302 301 299 299 300 301 302 303 302 299 299 299 298 297 294 291 289 285 282 278 271 268 266
205 222 227 223 227 231 176 149 175 231 223 232 274 291 280 263 241 217 214 227 230 221 225 243 248 250 254 258 260 260 261 265 267 272 280 281 280 288 294 296 299 301 294 289 289 290 291 292 293 293 291 288 288 286 286 291 299 300 299 300 301 298 298 298 298 297 298 298 298 299 299 300 299 295 293 294 294 293 290 286 283 280 278 275 269 264 263
192 210 243 249 222 231 228 191 215 253 263 267 258 242 260 275 255 207 204 240 247 235 229 245 255 257 257 258 260 262 265 272 276 280 287 290 292 296 295 293 296 298 292 288 287 287 288 290 290 291 291 288 284 283 287 295 299 299 300 302 300 297 296 295 294 295 296 296 296 296 296 296 294 290 289 290 289 288 286 282 277 273 271 268 261 256 255
264 251 258 264 267 267 263 250 244 250 258 263 241 211 236 257 245 223 220 241 256 255 243 241 250 256 258 263 269 277 285 288 288 291 295 297 299 298 294 293 295 296 294 290 288 287 288 290 290 292 293 289 283 284 291 297 298 299 301 301 299 297 296 295 294 295 295 295 295 295 294 291 287 283 283 283 282 282 281 277 271 268 266 263 257 252 250
271 267 264 263 259 262 266 269 268 263 259 260 237 210 232 250 251 249 242 240 255 263 254 245 250 257 267 284 296 306 308 295 295 301 299 297 297 293 291 294 298 299 296 291 289 290 290 292 294 295 295 291 288 289 294 298 299 301 301 298 296 295 294 295 295 295 294 293 292 293 292 290 286 282 279 277 276 275 274 271 268 265 262 259 255 249 248
248 256 264 266 259 260 264 265 268 273 275 274 261 236 236 250 263 276 273 252 260 272 276 277 275 281 299 328 317 307 302 293 294 297 293 293 295 294 295 300 303 301 296 292 292 292 291 293 297 298 296 295 294 295 298 301 303 303 300 296 294 292 292 293 294 293 293 291 290 290 289 287 285 282 280 277 273 268 266 263 263 262 259 256 253 249 247
253 257 264 269 271 269 265 258 258 262 265 268 271 270 266 296 315 332 355 5 34 53 34 30 2 310 304 309 287 284 288 289 289 292 296 299 299 299 302 306 306 302 298 296 296 294 293 296 299 300 298 297 298 300 301 303 304 302 298 295 293 290 290 290 291 291 291 290 288 288 287 286 284 280 277 274 271 269 267 262 259 259 259 257 255 252 250
262 261 257 255 261 267 266 263 262 260 249 252 267 292 19 58 35 9 1 351 31 80 79 49 12 297 289 291 284 279 281 285 290 297 302 303 302 304 307 308 307 304 302 302 301 299 298 300 301 300 299 299 301 303 303 303 302 298 295 293 291 289 288 289 290 291 291 290 289 288 287 286 285 282 279 274 268 267 267 266 262 258 257 257 256 254 252
258 264 261 250 240 254 265 268 268 277 20 217 236 285 63 99 101 59 24 329 326 1 281 274 268 267 276 292 299 291 283 286 293 300 303 303 303 306 309 310 310 309 308 307 305 303 303 304 303 301 301 301 303 304 304 303 300 295 292 290 288 287 288 289 289 291 290 289 289 288 286 283 282 281 281 278 270 264 262 263 263 261 259 257 256 255 252
258 267 268 263 248 254 267 274 262 90 65 113 141 133 122 134 141 113 123 275 287 284 278 269 262 271 284 296 300 295 290 293 301 305 305 303 304 307 310 311 310 310 310 309 308 307 306 306 304 302 301 301 303 304 303 301 297 293 289 285 283 284 287 288 288 288 288 287 288 287 285 283 279 274 274 277 276 272 267 264 262 262 260 257 256 255 252
250 258 263 267 263 260 271 339 95 101 79 101 129 144 157 154 200 251 236 254 270 278 292 300 299 300 302 301 300 297 294 297 305 310 309 308 309 310 310 309 309 309 308 307 306 305 304 302 300 299 298 299 301 301 299 297 294 290 286 282 280 281 284 286 286 285 284 284 284 281 278 278 277 278 282 286 292 294 291 283 275 270 265 260 257 255 253
245 257 270 285 284 272 149 124 155 116 95 101 127 154 214 262 278 279 278 275 275 281 290 297 302 309 310 306 305 305 301 302 307 312 312 309 310 311 310 308 307 306 304 302 301 301 300 299 298 297 296 297 299 299 297 295 292 287 284 282 280 280 281 282 283 282 282 281 281 280 279 281 286 292 294 292 290 290 291 288 282 273 264 258 256 256 254
250 270 286 279 277 269 181 185 229 138 110 102 120 153 293 303 303 301 293 283 286 295 296 300 309 316 318 316 312 309 307 306 309 312 311 307 307 308 307 305 304 303 301 300 299 300 300 299 297 295 295 297 298 298 297 295 291 287 285 283 281 280 280 280 280 280 279 278 277 279 280 283 286 287 283 279 276 273 270 270 271 269 261 253 250 252 254
7 37 65 251 262 263 152 127 135 115 99 62 65 21 339 333 321 311 308 305 316 325 319 322 330 329 324 323 320 314 310 308 308 308 308 307 306 305 305 304 303 303 302 300 300 301 302 301 299 297 298 300 302 301 300 297 294 290 287 285 284 282 282 281 279 278 276 276 275 275 276 276 276 275 270 267 265 263 261 261 261 261 260 255 248 246 250
66 33 42 127 278 72 104 107 90 93 63 29 35 19 0 348 330 321 335 339 339 337 327 330 336 330 321 320 320 317 312 311 309 307 305 305 305 304 304 304 304 303 302 301 302 305 306 305 304 303 303 305 306 305 304 302 298 294 291 289 286 284 283 282 280 278 276 275 274 272 271 271 269 268 267 268 270 271 271 270 267 263 257 254 249 242 241
52 18 42 67 61 80 129 143 123 75 346 16 18 4 356 346 330 323 332 336 334 332 329 328 327 324 320 319 318 314 309 306 305 304 302 302 302 302 304 306 307 307 307 306 307 308 308 308 307 305 305 308 309 308 306 304 299 296 293 290 287 284 283 283 282 280 278 276 275 273 271 269 268 269 272 275 276 276 275 273 272 270 260 250 245 237 231
41 32 109 124 73 69 139 158 150 287 16 38 10 342 343 345 330 319 321 331 330 322 321 322 320 319 320 317 313 310 307 303 302 301 300 299 300 301 306 310 311 310 309 309 308 308 309 308 306 305 308 310 311 309 307 304 300 297 294 291 289 286 285 285 284 282 280 279 278 276 273 271 269 269 268 266 263 262 263 262 262 264 262 254 246 238 232
93 54 4 233 52 43 127 162 141 338 349 3 346 334 337 333 317 309 311 319 318 314 317 319 316 315 315 313 311 310 307 303 301 299 297 297 300 304 309 312 311 308 307 307 307 309 309 308 306 308 311 313 311 310 308 305 301 298 294 292 290 287 286 285 283 280 279 278 276 274 270 268 268 267 266 264 260 259 260 259 253 250 251 250 246 240 235
143 187 244 233 202 224 250 239 253 302 306 308 307 311 308 297 291 293 298 304 308 312 315 312 309 310 311 311 311 310 306 303 300 297 297 301 306 310 313 314 313 310 308 307 308 309 309 308 309 312 315 314 313 312 310 307 303 299 295 294 291 287 284 283 280 278 278 276 273 271 270 269 270 270 270 271 272 271 270 267 261 251 245 244 246 244 236
149 184 201 160 145 253 264 270 293 300 297 293 294 304 303 293 287 289 296 303 307 309 306 304 305 308 309 310 309 307 304 303 301 301 305 310 312 313 315 316 314 311 310 310 312 314 315 316 316 316 316 316 314 313 312 310 307 303 299 296 293 288 284 280 276 272 271 268 265 266 266 265 266 266 265 265 266 266 268 270 269 263 252 247 247 245 238
86 85 76 90 91 290 276 271 284 295 299 298 300 301 292 287 288 291 295 297 298 299 301 302 304 306 307 306 305 303 301 300 300 304 310 312 312 314 318 318 316 315 315 317 321 325 325 324 322 320 319 318 316 315 315 314 311 307 304 300 294 289 286 282 276 268 262 262 263 263 262 261 262 262 262 260 257 256 258 262 264 262 255 249 246 241 236
58 52 3 336 312 295 278 268 271 275 276 280 284 282 282 285 287 289 292 293 295 298 301 302 303 303 302 300 299 298 297 297 301 307 310 310 312 316 319 317 316 318 320 324 331 334 332 328 326 325 324 321 319 318 318 318 315 312 309 305 299 294 289 285 281 273 266 263 262 260 259 259 260 261 263 266 265 263 261 258 255 252 247 242 238 231 225
358 334 306 300 291 281 273 272 274 274 273 274 277 279 284 287 289 289 292 294 296 298 299 299 298 297 295 294 294 293 293 296 303 308 308 309 314 319 318 316 319 325 328 330 334 335 332 329 329 329 327 324 322 321 321 320 318 316 314 310 307 303 298 293 289 284 279 272 266 261 260 261 261 261 262 264 266 266 264 257 250 243 236 232 229 221 213
306 301 288 286 286 281 280 284 286 284 281 281 282 284 286 288 291 294 296 295 296 298 297 295 293 291 292 293 293 291 293 301 307 308 308 311 317 318 314 314 322 329 329 327 328 330 331 331 331 330 328 326 324 324 324 323 323 323 321 318 315 312 308 304 300 297 293 285 275 266 262 260 260 261 262 261 259 258 255 248 237 225 215 208 198 186 172
304 297 289 290 291 287 286 289 290 286 282 280 282 287 291 293 295 296 294 293 295 296 294 292 292 292 290 291 291 293 298 305 309 309 310 315 317 312 306 309 320 325 326 328 331 331 332 333 332 331 329 328 328 328 328 329 331 332 331 328 326 323 320 318 317 316 316 313 304 292 281 275 271 271 271 267 260 248 226 189 159 145 134 126 126 126 121
305 292 290 290 288 285 287 287 285 285 285 284 284 289 293 296 297 296 292 291 293 294 292 291 291 289 287 287 290 297 302 306 308 310 313 316 315 309 307 319 334 339 339 339 339 337 335 335 335 333 332 333 333 333 333 333 337 341 342 340 339 338 336 335 337 339 339 341 344 347 348 351 359 7 17 35 54 67 80 88 92 97 102 103 104 107 108
291 294 296 295 294 294 293 291 288 289 290 289 288 290 293 295 294 289 286 287 290 292 292 289 284 280 282 286 292 298 302 304 308 313 316 315 311 307 311 333 341 344 346 345 343 341 340 340 340 338 336 337 337 337 336 338 343 349 352 352 352 350 347 346 349 354 355 356 1 5 8 14 24 32 39 47 52 57 65 74 78 83 90 95 98 102 106
288 294 296 296 295 292 289 287 287 289 290 291 293 295 297 296 292 286 285 286 288 289 289 287 282 279 282 289 294 298 300 303 309 316 317 312 304 297 309 333 340 346 349 347 345 345 345 345 345 343 341 341 341 341 343 347 351 355 359 2 3 2 360 356 356 360 5 9 14 17 19 22 28 33 40 46 50 55 62 68 71 74 81 88 94 100 105
287 291 291 287 285 286 286 288 289 290 293 296 299 300 299 296 291 286 285 286 286 285 285 284 282 282 284 290 295 298 300 307 314 318 320 321 321 324 336 338 342 347 350 348 345 347 349 350 349 346 345 345 348 351 355 358 0 2 5 7 9 11 11 10 8 10 13 16 17 20 25 28 31 33 38 44 49 54 60 64 67 71 77 84 91 98 102
291 287 280 279 284 289 293 293 294 294 295 297 300 300 297 294 291 288 284 282 282 283 281 280 281 284 286 290 296 298 301 309 314 315 318 327 339 353 353 348 346 348 351 350 348 349 351 353 352 351 351 354 360 3 5 6 7 8 10 11 12 15 17 18 18 20 21 21 21 25 31 37 40 43 47 51 53 58 61 62 65 74 84 90 93 98 104
283 282 283 289 295 298 297 294 294 293 292 294 297 297 294 292 292 292 289 282 280 281 280 279 283 287 287 291 298 299 301 307 308 304 303 313 331 341 347 350 350 351 354 355 354 353 355 357 359 1 3 6 10 12 14 14 14 14 16 17 17 18 19 20 21 23 25 27 28 30 34 39 43 48 53 56 59 62 65 66 71 81 89 91 92 96 103
289 299 306 307 304 300 297 296 294 293 292 292 293 295 297 298 298 296 293 288 283 282 282 283 285 285 287 297 302 302 305 311 309 292 279 302 321 330 342 351 355 357 358 359 359 359 360 2 7 10 14 16 17 18 19 19 19 20 21 22 22 22 22 22 23 25 27 31 35 38 40 42 45 50 55 60 63 66 70 73 77 82 85 88 94 101 106
312 315 313 309 303 301 301 301 298 293 290 285 279 287 299 306 305 300 297 295 290 288 290 292 290 286 290 299 299 298 305 315 316 304 321 340 344 348 356 1 3 3 3 3 5 7 8 11 14 16 19 22 23 22 21 21 22 23 24 24 25 26 26 26 27 28 30 33 39 44 47 50 51 53 56 60 62 65 69 74 78 80 83 87 91 97 101
314 307 304 303 300 300 302 304 299 289 283 282 282 289 299 306 307 304 300 298 296 298 300 298 293 292 295 294 291 294 303 307 304 316 344 353 359 5 7 6 6 8 8 10 13 17 18 19 20 21 23 26 26 25 24 24 24 25 25 26 27 28 29 30 31 33 36 38 41 43 46 50 52 55 58 61 63 65 71 76 79 83 87 91 93 97 103
309 303 303 303 301 300 303 304 297 288 292 296 297 299 304 306 304 300 299 301 306 308 306 299 291 296 301 299 297 305 311 301 287 312 342 358 8 12 10 10 13 15 14 15 18 20 22 24 26 27 27 29 28 28 28 29 28 27 28 29 30 32 34 36 38 41 44 46 48 49 50 52 55 58 62 66 68 70 74 78 82 86 91 97 102 106 110
311 307 302 300 299 301 303 299 293 296 303 304 304 306 308 307 300 297 307 315 312 305 308 312 305 300 307 316 320 322 333 346 349 352 3 15 20 18 16 17 19 20 19 20 21 22 24 27 28 28 29 31 31 31 32 32 32 32 33 33 34 36 39 42 44 47 48 50 52 54 56 58 61 63 66 68 70 73 77 82 87 93 97 102 106 110 113
307 302 297 297 304 311 313 313 313 314 314 316 316 313 309 305 300 300 310 317 315 311 321 328 320 308 319 336 348 358 14 29 34 29 26 27 26 23 23 24 24 23 24 24 24 24 26 27 28 29 31 33 33 34 35 36 37 38 38 38 39 40 42 44 46 48 50 52 54 56 58 60 63 66 68 69 71 74 78 82 86 90 94 99 106 110 113
318 315 317 327 335 334 332 334 337 334 330 329 327 322 317 314 312 308 311 321 331 335 332 321 305 306 330 351 8 26 35 39 40 36 33 31 28 27 26 26 26 26 26 26 26 27 27 27 28 29 31 32 33 36 37 39 40 41 41 42 44 45 46 48 49 50 51 53 55 57 59 61 65 67 69 72 75 78 80 83 86 88 91 96 101 105 107